Regional Weather Roundup
Issued by NWS Portland, ME

Home | Current Version | Previous Version | Text Only | Print | Product List | Glossary On
Versions: 1 2 3 4 5 6 7 8 9 10 11 12 13 14 15 16 17 18 19 20 21 22 23 24 25 26 27 28 29 30 31 32 33 34 35 36 37 38 39 40 41 42 43 44 45 46 47 48 49 50
000
ASUS41 KGYX 232110
RWRGYX
WEATHER ROUNDUP FOR MAINE AND NEW HAMPSHIRE
NATIONAL WEATHER SERVICE GRAY ME
500 PM EDT SUN JUL 23 2017

MEZ002-005-006-010-012-015-018-020-021-024-026-027-029-232200-
MAINE

CITY           SKY/WX    TMP DP  RH WIND       PRES   REMARKS
PORTLAND       MOSUNNY   70  44  39 S9        29.88F
SANFORD          N/A     70  49  47 SE6       29.89S
BAR HARBOR     MOSUNNY   67  47  48 SW13      29.88R
WISCASSET      MOSUNNY   71  46  40 S7        29.90S
ROCKLAND       MOSUNNY   68  45  43 S7        29.89S
FRYEBURG       SUNNY     76  55  48 E6        29.86F
LEWISTONAUBURN MOSUNNY   73  52  47 S10       29.87S
AUGUSTA        SUNNY     76  47  35 W6        29.87F
WATERVILLE     SUNNY     73  50  44 N5        29.85F
BANGOR         PTSUNNY   76  42  29 MISG      29.87S
GREENVILLE       N/A     69  44  40 VRB6      29.88R
MILLINOCKET    MOSUNNY   74  40  29 N9        29.87F
HOULTON        PTSUNNY   72  43  35 N5        29.84F
PRESQUE ISLE   MOSUNNY   70  42  36 NW7       29.86S
FRENCHVILLE    PTSUNNY   67  43  41 N10       29.85F
CARIBOU        SUNNY     69  43  38 NW7       29.84S
$$

NHZ002-005-008-009-011-012-014-232200-
NEW HAMPSHIRE

CITY           SKY/WX    TMP DP  RH WIND       PRES   REMARKS
PORTSMOUTH     PTSUNNY   71  45  39 SE8       29.88S
ROCHESTER      MOSUNNY   73  50  44 S6        29.88S
NASHUA         CLOUDY    78  53  41 E7        29.88S
MANCHESTER     PTSUNNY   75  49  39 SE7       29.86F
CONCORD        SUNNY     77  54  44 S6        29.87S
LACONIA        SUNNY     76  56  49 S9        29.87F
PLYMOUTH       FAIR      77  55  46 CALM      29.85F
BERLIN         SUNNY     78  46  32 VRB5      29.87F
WHITEFIELD     SUNNY     76  52  43 VRB5      29.87F
JAFFREY        MOSUNNY   74  57  55 VRB6      29.89F
KEENE          MOSUNNY   76  57  51 S7        29.86F
LEBANON        MOSUNNY   80  57  45 S6        29.84F
MT WASHINGTON  PTSUNNY   52  41  66 NW17G26     N/A
$$

VTZ005-007-008-232200-
VERMONT

CITY           SKY/WX    TMP DP  RH WIND       PRES   REMARKS
ST JOHNSBURY     N/A     78  50  37 MISG      29.84F
MONTPELIER     SUNNY     75  53  46 VRB5      29.90F
BURLINGTON     MOSUNNY   78  53  41 NW10      29.86F
$$

MAZ007-012-024-CTZ003-RIZ002-NYZ038-NYZ072-232200-
SOUTHERN NEW ENGLAND AND NY

CITY           SKY/WX    TMP DP  RH WIND       PRES   REMARKS
BOSTON         CLOUDY    67  53  61 E12       29.90R
WORCESTER      MOSUNNY   73  48  41 E8        29.90R
NANTUCKET      MOSUNNY   71  60  68 NE14      29.87R
PROVIDENCE     PTSUNNY   75  52  44 E7        29.88R
HARTFORD       PTSUNNY   80  59  48 E7        29.83F
ALBANY         PTSUNNY   79  65  62 NE7       29.81F
NEW YORK CITY  LGT RAIN  77  69  76 E9        29.82R
$$

ANZ081-ANZ082-ANZ150-NHZ014-MEZ023>029-232200-
COASTAL MARINE OBSERVATIONS

STATION/POSITION TIME  TEMP    WIND        PRES    WAVE
                       AIR SEA DIR/SP/G            HT/PER
                 (UTC) (F)     (DEG/KT/KT) (MB)    (FT/S)
MOUNT DESERT ROC 2100   60                 1012.3R
MATINICUS ROCK   2000   60     200/  8/  8 1012.1R
ISLE OF SHOALS   2000   65      90/  5/  6 1012.2F
JEFFREYS LEDGE   2036      65                N/A     3/ 5
CASHES LEDGE BUO 1950   66 65              1012.6    3/ 5
GEORGES BANK BUO 1950   63 62              1009.0    3/ 7
$$

.............KEY..............
   WCI - WIND CHILL
   TC  - TEMPERATURE IN CELSIUS
   VSB - VISIBILITY IN MILES
   HX  - HEAT INDEX
   FAIR- INDICATES FEW OR NO CLOUDS BELOW 12,000 FT, WITH NO
         SIGNIFICANT WEATHER AND/OR OBSTRUCTIONS TO VISIBILITY.






USA.gov is the U.S. government's official web portal to all federal, state and local government web resources and services.